Regional Weather Roundup
Issued by NWS Memphis, TN

Home | Current Version | Previous Version | Text Only | Print | Product List | Glossary On
Versions: 1 2 3 4 5 6 7 8 9 10 11 12 13 14 15 16 17 18 19 20 21 22 23 24 25 26 27 28 29 30 31 32 33 34 35 36 37 38 39 40 41 42 43 44 45 46 47 48 49 50
000
ASUS44 KMEG 011110
RWRMEG
MEMPHIS CWA HOURLY WEATHER ROUNDUP
NATIONAL WEATHER SERVICE MEMPHIS TN
500 AM CST SUN FEB 01 2015

...WEST TENNESSEE...

CITY           SKY/WX    TMP DP  RH WIND       PRES   REMARKS
MEMPHIS INTL   LGT RAIN  49  38  65 S13       29.93F
NWS MEMPHIS      N/A     50 N/A N/A MISG        N/A
JACKSON        CLOUDY    50  24  36 S12G20    29.95F
LEXINGTON      PTCLDY    48  21  34 S8        29.99F
SAVANNAH       MOCLDY    48  27  43 S9        30.01F
DYERSBURG      CLOUDY    48  21  34 S9G16     29.93F
UNION CITY     CLOUDY    46  27  46 S15       29.90F
PARIS          PTCLDY    46  21  36 S14       29.95F


...EASTERN ARKANSAS...

CITY           SKY/WX    TMP DP  RH WIND       PRES   REMARKS
JONESBORO      LGT RAIN  43  39  86 S10       29.87F
WEST MEMPHIS   LGT RAIN  47  40  76 S13       29.91F
BATESVILLE     CLOUDY    43  37  81 S6        29.82F
NEWPORT        LGT RAIN  44  41  89 S14       29.86F
WALNUT RIDGE   CLOUDY    43  36  75 S10       29.85F
BLYTHEVILLE    CLOUDY    50  29  44 S16       29.88F
SEARCY         LGT RAIN  44  42  93 S7        29.85
STUTTGART      CLOUDY    48  43  81 S17       29.88F
PINE BLUFF     LGT RAIN  51  48  89 S17       29.88F
MONTICELLO     LGT RAIN  51  48  89 S12G18    29.92F


...NORTH MISSISSIPPI...

CITY           SKY/WX    TMP DP  RH WIND       PRES   REMARKS
TUPELO         CLOUDY    49  33  54 S13       30.04S
OXFORD         CLOUDY    45  39  81 SE9       30.00F HAZE
OLIVE BRANCH   CLOUDY    46  39  76 S15       29.93F
TUNICA         DRIZZLE   46  43  87 S13       29.95S
CLARKSDALE     CLOUDY    48  48 100 SE18      29.95F
GRENADA        RAIN      50  46  87 S7        30.00F
GREENWOOD      LGT RAIN  51  48  89 S20       29.98F
COLUMBUS       LGT RAIN  48  37  65 SE12      30.06F
STARKVILLE     LGT RAIN  45  39  81 S6        30.07R
GOLDEN TRIANGL CLOUDY    46  36  66 S10       30.06F


...SOUTHEAST MISSOURI...

CITY           SKY/WX    TMP DP  RH WIND       PRES   REMARKS
WEST PLAINS    RAIN      36  33  89 S8        29.78F FOG     WCI  30
POPLAR BLUFF   LGT RAIN  41  34  76 S8        29.84F
CAPE GIRARDEAU CLOUDY    44  31  60 S12       29.88F


...NORTHWEST ALABAMA...

CITY           SKY/WX    TMP DP  RH WIND       PRES   REMARKS
MUSCLE SHOALS  CLOUDY    51  25  36 S10       30.07F


...MIDDLE TENNESSEE...

CITY           SKY/WX    TMP DP  RH WIND       PRES   REMARKS
NASHVILLE      CLOUDY    47  21  35 S9        30.05F
CLARKSVILLE    CLOUDY    44  22  41 SE7       30.00F
COLUMBIA       MOCLDY    48  25  40 S8        30.02F


...WESTERN KENTUCKY...

CITY           SKY/WX    TMP DP  RH WIND       PRES   REMARKS
PADUCAH        CLOUDY    48  23  37 S12       29.90F
FORT CAMPBELL  CLOUDY    45  20  37 SE7       29.99F


...CENTRAL ARKANSAS...

CITY           SKY/WX    TMP DP  RH WIND       PRES   REMARKS
LITTLE ROCK    CLOUDY    51  46  83 S14       29.85F


SKY/WX REPORTED AS FAIR MEANS FEW OR NO CLOUDS BELOW
12 THOUSAND FEET.




USA.gov is the U.S. government's official web portal to all federal, state and local government web resources and services.